Snowfall_Accumulation
0.0 0.0 0.0 0.0 0.0 0.0 0.0 0.0 0.0 0.0 0.0 0.0 0.0 0.0 0.0 0.0 0.0 0.0 0.0 0.0 0.0 0.0 0.0 0.0 0.0 0.0 0.0
0.0 0.0 0.0 0.0 0.0 0.0 0.0 0.0 0.0 0.0 0.0 0.0 0.0 0.0 0.0 0.0 0.0 0.0 0.0 0.0 0.0 0.0 0.0 0.0 0.0 0.0 0.0
0.0 0.0 0.0 0.0 0.0 0.0 0.0 0.0 0.0 0.0 0.0 0.0 0.0 0.0 0.0 0.0 0.0 0.0 0.0 0.0 0.0 0.0 0.0 0.0 0.0 0.0 0.0
0.0 0.8 0.2 0.1 0.2 0.1 0.0 0.0 0.0 0.0 0.0 0.0 0.0 0.0 0.0 0.0 0.0 0.0 0.0 0.0 0.0 0.0 0.0 0.0 0.0 0.0 0.0
1.5 1.2 1.4 0.0 0.0 0.0 0.0 0.0 0.1 0.0 0.0 0.0 0.0 0.0 0.0 0.0 0.0 0.0 0.0 0.0 0.0 0.0 0.0 0.0 0.0 0.0 0.0
4.3 0.5 0.0 0.0 0.0 0.0 0.9 1.2 1.1 0.0 0.1 0.1 0.0 0.0 0.0 0.0 0.0 0.0 0.0 0.0 0.0 0.0 0.0 0.0 0.0 0.0 0.0
0.2 0.1 0.2 0.0 1.7 2.4 1.2 2.0 1.7 0.0 0.1 0.4 0.0 0.0 0.0 0.0 0.0 0.0 0.0 0.0 0.0 0.0 0.0 0.0 0.0 0.0 0.0
0.0 0.1 0.5 0.1 0.2 0.9 2.6 1.6 0.3 0.0 0.1 2.1 0.0 0.1 0.0 0.0 0.0 0.0 0.0 0.0 0.0 0.0 0.0 0.0 0.0 0.0 0.0
0.1 0.0 0.0 0.0 0.0 1.9 2.7 3.0 1.9 0.2 0.0 0.5 0.2 0.2 0.1 0.0 0.0 0.0 0.0 0.0 0.0 0.0 0.0 0.0 0.0 0.0 0.0
0.0 0.0 0.0 0.0 0.0 0.2 4.7 10.0 4.4 2.9 0.0 3.5 1.9 1.2 4.2 0.0 0.0 0.0 0.0 0.0 0.0 0.0 0.0 0.0 0.0 0.0 0.1
0.0 0.0 0.0 0.0 0.1 0.3 1.9 8.1 11.2 6.6 0.0 5.1 6.8 1.3 3.9 1.4 0.0 0.0 0.0 0.0 0.2 0.0 0.0 0.1 0.1 0.1 0.5
0.1 0.2 0.2 0.3 0.2 0.2 0.2 1.3 2.6 7.5 2.7 4.2 9.9 4.1 5.4 2.3 0.3 0.0 0.0 0.2 1.8 1.2 0.6 0.4 0.3 0.2 0.1
0.9 0.4 0.4 0.5 0.5 0.6 0.1 0.1 0.6 1.4 2.4 2.2 5.7 4.2 4.2 3.7 2.7 1.4 3.6 2.7 2.4 4.9 3.0 1.6 1.4 0.5 0.4
2.6 0.9 0.5 0.7 1.0 1.2 3.1 1.8 2.7 1.3 0.9 1.6 3.6 4.6 3.3 1.7 5.2 3.7 4.0 9.5 6.7 6.4 6.1 2.6 0.8 0.3 0.1
2.0 1.8 0.8 1.0 1.0 1.3 3.4 3.1 3.7 3.1 1.8 1.1 1.7 2.4 2.6 4.2 4.8 4.8 6.6 6.5 7.5 10.5 8.1 4.4 4.3 1.0 0.7
1.8 1.9 3.1 2.8 3.0 1.3 1.6 2.7 3.6 2.7 2.8 2.4 2.8 2.2 2.5 2.3 4.5 8.7 7.1 8.0 9.3 9.9 8.5 3.8 5.4 2.8 0.1
3.1 3.7 3.8 3.1 2.5 2.4 1.9 2.0 1.7 2.0 1.1 1.1 2.7 3.7 3.9 3.2 3.3 4.1 8.5 7.6 6.3 6.6 6.0 3.6 4.5 3.7 0.3